Home > Weather > Maputo > Past weeks

Flag for Mozambique Past Weather in Maputo, Mozambique — Yesterday and Last 2 Weeks

Now
79 °F

Passing clouds.


Feels Like: 80 °F
Forecast: 62 / 75 °F
Wind: 13 mph from Southeast

Location: Maputo / Mavalane

Current Time: Jun 28, 2016 at 1:28:12 PM

Latest Report: Jun 28, 2016 at 1:00 PM


Visibility: N/A

Pressure: 30.12 "Hg

Humidity: 51%

Dew Point: 59 °F

Location of MaputoLocation

Past Weather in Maputo — Graph

°F

Maputo Temperature Yesterday

Maximum temperature yesterday: 84 °F (at 2:00 PM)
Minimum temperature yesterday: 57 °F (at 2:00 AM)
Average temperature yesterday: 70 °F

High & Low Weather Summary for the Past Weeks

 TemperatureHumidityPressure
High93 °F (Jun 20, 1:00 PM)100% (Jun 18, 6:00 AM)30.51 "Hg (Jun 18, 6:00 AM)
Low54 °F (Jun 15, 7:00 AM)17% (Jun 16, 1:00 PM)29.92 "Hg (Jun 16, 2:00 PM)
Average69 °F65%30.20 "Hg
* Reported Jun 13 12:00 PM — Jun 28 12:00 PM, Maputo, Weather by CustomWeather, © 2016

Note: Actual official high and low records may vary slightly from our data, if they occured in-between our weather recording intervals... More about our weather records

Advertising

Maputo Weather History for the Previous 24 Hours

Scroll right to see more
 ConditionsComfort  
Time TempWeatherWind HumidityBarometerVisibility
12:00 PM
Tue, Jun 28
77 °FPassing clouds.13 mph54%30.15 "HgN/A
11:00 AM75 °FPassing clouds.16 mph54%30.15 "HgN/A
10:00 AM72 °FPassing clouds.17 mph61%30.15 "HgN/A
9:00 AM66 °FSunny.13 mph64%30.15 "Hg10 mi
8:00 AM61 °FSunny.13 mph77%30.12 "Hg10 mi
7:00 AM54 °FSunny.9 mph88%30.09 "Hg10 mi
5:00 AM54 °FClear.5 mph63%30.04 "Hg10 mi
4:00 AM54 °FClear.2 mph63%30.04 "Hg10 mi
12:00 AM64 °FClear.7 mph40%30.04 "Hg10 mi
9:00 PM
Mon, Jun 27
66 °FClear.10 mph46%30.07 "Hg10 mi
8:00 PM70 °FClear.8 mph43%30.07 "Hg10 mi
7:00 PM72 °FClear.8 mph33%30.04 "Hg10 mi
6:00 PM73 °FClear.8 mph31%30.04 "Hg10 mi
5:00 PM81 °FClear.12 mph24%30.01 "Hg10 mi
4:00 PM84 °FSunny.14 mph20%30.01 "Hg10 mi
3:00 PM84 °FSunny.14 mph23%30.01 "Hg10 mi
2:00 PM84 °FSunny.15 mph29%30.04 "Hg10 mi
Weather by CustomWeather, © 2016

See weather overviewHow to use our weather pages